Location: Bieujac
(44.5398°N, 0.1549°W)
Time: 00:18:22
(UTC+00:00)

Cosmos 1980 Rocket - Pass Details

Date: 17 November 2019
Orbit: 828 x 851 km, 71.0° (Epoch: 12 December)

Event Time Altitude Azimuth Distance (km) Brightness Sun altitude
Exits shadow 03:19:57 26° 101° (ESE) 1,627 4.1 -38.8°
Drops below altitude 10° 03:22:44 10° 122° (ESE) 2,469 5.0 -38.4°
Sets 03:25:22 0° 131° (SE) 3,398 5.8 -37.9°
